This is the latest recevied weather packets stored in our database for station/object K4KMJ. If no packets are shown the sender has not sent any weather packets the latest 10 day(s).
| Time | Temp. | Humidity | Pressure | Rain* | Wind** | Luminosity | Snow |
|---|---|---|---|---|---|---|---|
| 1777839127 | 23.33° C | 72% | 1018.1 hPa | 0 mm | - | 338 W/m² | - |
| 1777838823 | 23.89° C | 72% | 1018.3 hPa | 0 mm | - | 374 W/m² | - |
| 1777838520 | 23.33° C | 72% | 1018.5 hPa | 0 mm | - | 401 W/m² | - |
| 1777838217 | 23.89° C | 72% | 1018.4 hPa | 0 mm | - | 450 W/m² | - |
| 1777837914 | 23.89° C | 72% | 1018.3 hPa | 0 mm | - | 370 W/m² | - |
| 1777837610 | 23.89° C | 73% | 1018.5 hPa | 0 mm | - | 322 W/m² | - |
| 1777837306 | 23.33° C | 73% | 1018.6 hPa | 0 mm | - | 329 W/m² | - |
| 1777837003 | 23.33° C | 73% | 1018.7 hPa | 0 mm | - | 394 W/m² | - |
| 1777836698 | 23.33° C | 73% | 1018.8 hPa | 0 mm | - | 325 W/m² | - |
| 1777836394 | 23.89° C | 73% | 1019 hPa | 0 mm | - | 231 W/m² | - |
| 1777836090 | 23.89° C | 73% | 1019 hPa | 0 mm | - | 316 W/m² | - |
| 1777835787 | 23.33° C | 73% | 1018.9 hPa | 0 mm | - | 307 W/m² | - |
| 1777835484 | 23.89° C | 72% | 1019 hPa | 0 mm | - | 233 W/m² | - |
| 1777835181 | 23.89° C | 73% | 1019.1 hPa | 0 mm | - | 351 W/m² | - |
| 1777834878 | 23.89° C | 73% | 1019.4 hPa | 0 mm | - | 278 W/m² | - |
| 1777834575 | 23.89° C | 73% | 1019.3 hPa | 0 mm | - | 268 W/m² | - |
| 1777834274 | 23.33° C | 72% | 1019.7 hPa | 0 mm | - | 352 W/m² | - |
| 1777833969 | 23.89° C | 72% | 1019.5 hPa | 0 mm | - | 298 W/m² | - |
| 1777833666 | 23.89° C | 72% | 1019.4 hPa | 0 mm | - | 631 W/m² | - |
| 1777833363 | 23.89° C | 73% | 1019.5 hPa | 0 mm | - | 1181 W/m² | - |
| 1777833060 | 23.89° C | 73% | 1019.7 hPa | 0 mm | - | 425 W/m² | - |
| 1777832758 | 23.33° C | 72% | 1019.9 hPa | 0 mm | - | 265 W/m² | - |
| 1777832457 | 23.33° C | 72% | 1019.7 hPa | 0 mm | - | 269 W/m² | - |
| 1777832153 | 23.89° C | 72% | 1020 hPa | 0 mm | - | 300 W/m² | - |
| 1777831849 | 24.44° C | 72% | 1019.8 hPa | 0 mm | - | 392 W/m² | - |
* Rain latest hour (hover to see other rain measurements)
** Current wind speed in m/s (hover to see current wind gust speed)